Old Crow Airport
CYOC : now visible

Airfield :











YOU CAN JOIN US ON...

 
LOGIN :

Register | Disclaimer

   EN    FR    IT 

 









Legend :    VFR   Marginal VFR   IFR   Intensive IFR   Very Intensive IFR
Visi :
Ceiling :
>= 8 km
>= 3000ft
5 to 8 km
1000 to 3000 ft
1500m to 5 km
500 to 1000 ft
800 to 1500m
200 to 500 ft
< 800m
< 200 ft
Symbols :   Thunderstorms  Fog  Heavy snow  Heavy precipitations  Wind > 20 kt






- Airport Elevation : 824 ft
- IATA code : YOC


CYOC - Old Crow

CURRENT METAR :
  • 281800Z 27003KT 35SM IC SKC M30/M35 A3016 RMK SLP256

EXPIRED METARs :
  • 281700Z 24002KT 35SM IC FEW240 M33/M37 A3016 RMK CI2 SLP256
  • 281600Z CCA 00000KT 35SM IC FEW240 M35/M39 A3016 RMK CI2 FROIN SLP257

TAF TAF CYOC
Valid from the 28 at 15:00 until the 29 at 01:00 UTC


281438Z 2815/2901 VRB03KT P6SM SKC RMK NXT FCST BY 281900Z



MET'MAP, your aeronautical weather chart ! - Copyright ORBIFLY December 2007 - Disclaimer

ORBIFLY MET'MAP TEAM :

Programming & Development : Alexandra Zaïnal
Concept & original design : Baudouin d'Aumeries
Assistance for programming : Marc-Olivier Méhu
Technical & hardware support : Manuel Goepfert

Contact : metmap@orbifly.com




SOURCES & CREDITS :

   NOAA       Earth
Advisory